Location: Crescent
(42.8242°N, 73.7329°W)
Time: 03:54:51
(UTC+00:00)

Tiros 1 - Pass Details

Date: 21 February 2026
Orbit: 618 x 649 km, 48.4° (Epoch: 7 March)

Event Time Altitude Azimuth Distance (km) Brightness Sun altitude
Rises 10:53:32 0° 200° (SSW) 2,919 10.4 -9.8°
Reaches altitude 10° 10:56:20 10° 183° (S) 2,008 9.7 -9.3°
Maximum altitude 10:59:44 20° 136° (SE) 1,439 9.7 -8.7°
Drops below altitude 10° 11:03:08 10° 88° (E) 2,002 11.3 -8.1°
Sets 11:05:54 0° 72° (ENE) 2,906 11.9 -7.6°
